Volver al catálogo

MIDAS 5 DEB

ActivoPO
NORAD 274·DEBRIS·🇺🇸 United States

Lanzado Apr 9, 1962 desde Vandenberg Space Force Base

Loading…

Próximos Pases (próximas 24 horas)

TLE

ActualizadoSource: Space-Track

Época: Sep 5, 2026, 03:11 UTC

1 00274U 62010D   26248.13268727 -.00000068  00000-0 -15044-1 0  9991
2 00274  86.6724 322.0961 0345937  72.0113 291.8171  9.39364932208294

Sigue MIDAS 5 DEB en tiempo real con AllMySat

Download on the App Store